Regional Weather Roundup
Issued by NWS

Home | Current Version | Previous Version | Text Only | Print | Product List | Glossary On
Versions: 1 2 3 4 5 6 7 8 9 10 11 12 13 14 15 16 17 18 19 20 21 22 23 24 25 26 27 28 29 30 31 32 33 34 35 36 37 38 39 40 41 42 43 44 45 46 47 48 49 50
000
ASUS42 KKEY 170210
RWRKEY

FLORIDA REGIONAL WEATHER ROUNDUP FOR THE FLORIDA KEYS
NATIONAL WEATHER SERVICE KEY WEST FLORIDA
1000 PM EDT TUE SEP 16 2014

...SOUTH FLORIDA AND THE KEYS...

CITY           SKY/WX    TMP DP  RH WIND       PRES   REMARKS
FORT MYERS     PTCLDY    77  71  82 SE5       30.03R
SW REGIONAL AP PTCLDY    76  69  79 CALM      30.04R
NAPLES         CLOUDY    78  72  81 E6        30.03R
MIAMI          MOCLDY    80  74  81 W5        30.03R
WEST KENDALL   MOCLDY    78  74  87 W6        30.04R
HOMESTEAD      MOCLDY    79  73  81 NW3       30.03R
MARATHON       CLOUDY    80  76  87 NE7       30.03R
BOCA CHICA NAS CLOUDY    82  75  79 E8        30.03R
KEY WEST INTL  CLOUDY    83  75  77 E7        30.03R HX  90

...INTERNATIONAL WEATHER...

CITY           SKY/WX    TMP DP  RH WIND       PRES   REMARKS
NASSAU BAHAMAS NOT AVBL
CANCUN MEXICO  PTCLDY    81  77  89 E3        29.99R
COZUMEL MEXICO PTCLDY    75  73  94 E3        29.99R

ADJACENT COASTAL WATERS...

STATION/POSITION TIME  SKY/WX   TEMP    WIND        PRES    WAVE
                                AIR SEA DIR/SP/G            HT/PER
                 (UTC)          (F)     (DEG/KT/KT) (MB)    (FT/S)
PULASKI SHOAL LI 0200            84      70/  5/  7 1016.8R
SAND KEY         0138            83      70/ 10/ 15 1016.7R
SOMBRERO KEY     0200            81      30/ 10/ 11 1017.7R
LONG KEY         0100            80 86   10/ 10/ 11 1017.2
MOLASSES REEF    0200            81 86  350/  4/  5 1017.0R
FOWEY ROCKS      0200            83 85  280/  6/  6 1017.1R
Buoy 42080       NOT AVBL

$$



USA.gov is the U.S. government's official web portal to all federal, state and local government web resources and services.